Regional Weather Roundup
Issued by NWS

Home | Current Version | Previous Version | Graphics & Text | Print | Product List | Glossary On
Versions: 1 2 3 4 5 6 7 8 9 10 11 12 13 14 15 16 17 18 19 20 21 22 23 24 25 26 27 28 29 30 31 32 33 34 35 36 37 38 39 40 41 42 43 44 45 46 47 48 49 50
785
ASUS45 KPSR 071910
RWRAZ

ARIZONA HOURLY REGIONAL WEATHER ROUNDUP
NATIONAL WEATHER SERVICE PHOENIX AZ
1200 PM MST SUN FEB 07 2016

NOTE: FAIR INDICATES FEW OR NO CLOUDS BELOW 12,000 FEET WITH NO
SIGNIFICANT WEATHER AND/OR OBSTRUCTIONS TO VISIBILITY.

AZZ001>003-036-072000-
NORTHWEST ARIZONA

CITY           SKY/WX    TMP DP  RH WIND       PRES   REMARKS
BULLHEAD CITY  SUNNY     64  23  20 N31G44    30.28S
KINGMAN        SUNNY     57  23  26 N15       30.36S
$$

AZZ004>008-015-016-018-072000-
NORTH CENTRAL ARIZONA

CITY           SKY/WX    TMP DP  RH WIND       PRES   REMARKS
GRAND CANYON   SUNNY     48  14  25 NE21      30.46R
WILLIAMS       SUNNY     52  16  24 NE13      30.44F
PRESCOTT       SUNNY     52  17  25 CALM      30.35F
FLAGSTAFF      SUNNY     42  16  34 E17G24    30.41F
PAYSON         SUNNY     61  12  15 E8G14     30.33F
PAGE           SUNNY     39  24  55 NE7       30.51F WCI  34
$$

AZZ009>014-017-072000-
NORTHEAST ARIZONA

CITY           SKY/WX    TMP DP  RH WIND       PRES   REMARKS
WINSLOW        SUNNY     44  20  38 NW6       30.46F
SAINT JOHNS    SUNNY     46  18  32 CALM      30.40F
WINDOW ROCK    SUNNY     47   0  14 CALM      30.41F
SHOW LOW       SUNNY     41  19  42 N13       30.42F
$$

AZZ023-072000-
GREATER PHOENIX AREA

CITY           SKY/WX    TMP DP  RH WIND       PRES   REMARKS
PHOENIX        MOSUNNY   69  18  14 N6        30.19F
BUCKEYE        SUNNY     66  21  18 NW3       30.22F
GLENDALE       MOSUNNY   66  23  19 E5        30.22F
LUKE AFB       SUNNY     67  24  19 NE1       30.19F
DEER VALLEY    SUNNY     69  19  15 CALM      30.20F
SCOTTSDALE     SUNNY     67  18  15 VRB3      30.22F
MESA-GATEWAY   MOSUNNY   64  25  22 CALM      30.22F
CHANDLER       SUNNY     66  23  19 CALM      30.21F
$$

AZZ027-028-072000-
SOUTHWEST MARICOPA COUNTY AND PINAL COUNTY

CITY           SKY/WX    TMP DP  RH WIND       PRES   REMARKS
CASA GRANDE    SUNNY     64  21  19 CALM      30.21F
GILA BEND      FAIR      67  23  18 NE6       30.18F
$$

AZZ503-504-507>509-072000-
SOUTHEAST ARIZONA

CITY           SKY/WX    TMP DP  RH WIND       PRES   REMARKS
TUCSON         SUNNY     68  11  11 N12       30.21F
DAVIS-MONTHAN  SUNNY     66  14  13 N7        30.19S
RYAN FIELD     SUNNY     72  18  13 NW8       30.21
NOGALES        CLOUDY    64   3   9 S6        30.21F
SIERRA VISTA   MOSUNNY   61   2   9 E7        30.27F
DOUGLAS        PTSUNNY   59  10  14 S3        30.26F
SAFFORD        SUNNY     58  13  17 VRB5      30.29F
$$

AZZ020-021-025-026-031-072000-
SOUTHWEST ARIZONA

CITY           SKY/WX    TMP DP  RH WIND       PRES   REMARKS
YUMA           SUNNY     72  24  16 N21       30.21F
$$

CAZ031-033-041-043-047-048-061-072000-
SOUTHERN CALIFORNIA

CITY           SKY/WX    TMP DP  RH WIND       PRES   REMARKS
DOWNTOWN L.A.  SUNNY     76  23  14 CALM      30.13F
L.A. AIRPORT   SUNNY     75  24  15 SE3       30.14S
SAN DIEGO      MOSUNNY   75  21  13 W6        30.15S
BURBANK        SUNNY     73  23  15 E6        30.15S
ONTARIO        SUNNY     80  16   9 E20G35    30.14F
RIVERSIDE      SUNNY     78  17  10 N12G24    30.18F
PALM SPRINGS   SUNNY     78  20  11 NW8       30.25F
EL CENTRO NAS  SUNNY    N/A N/A N/A N6        30.24F
IMPERIAL       SUNNY     72  26  18 NW5       30.22F
BLYTHE         SUNNY     71  24  17 N21G28    30.24F
NEEDLES        SUNNY     69  22  16 N29G38    30.28F
$$

NVZ020-UTZ003-072000-
SOUTHERN NEVADA-UTAH

CITY           SKY/WX    TMP DP  RH WIND       PRES   REMARKS
LAS VEGAS      SUNNY     61  21  21 N5        30.37F
SALT LAKE CITY MOSUNNY   37  24  59 CALM      30.61R
$$

NMZ009-TXZ055-072000-
NEW MEXICO-WEST TEXAS

CITY           SKY/WX    TMP DP  RH WIND       PRES   REMARKS
ALBUQUERQUE    MOSUNNY   49  15  25 NW10      30.37F
EL PASO        MOSUNNY   59   9  13 N10       30.29F
$$


........................KEY........................
SKY/WX - SKY CONDITION/WEATHER
TMP    - TEMPERATURE IN FAHRENHEIT
DP     - DEW POINT IN FAHRENHEIT
RH     - RELATIVE HUMIDITY IN PERCENT
WIND   - DIRECTION AND SPEED IN MILES PER HOUR (MPH)
VRB    - VARIABLE WIND DIRECTION
PRES   - MEAN SEA LEVEL PRESSURE IN INCHES OF MERCURY
         F - FALLING PRESSURE   R - RISING PRESSURE
         S - STEADY PRESSURE
VSB    - VISIBILITY IN MILES
HX     - HEAT INDEX IN FAHRENHEIT
WCI    - WIND CHILL INDEX IN FAHRENHEIT
TC     - TEMPERATURE IN CELSIUS WHICH IS ALSO KNOWN AS
         TEMPERATURE IN CENTIGRADE
AFB    - AIR FORCE BASE
         LUKE AFB IS LUKE AIR FORCE BASE
         DAVIS-MONTHAN IS DAVIS-MONTHAN AIR FORCE BASE
NAS    - NAVAL AIR STATION
         EL CENTRO NAS IS EL CENTRO NAVAL AIR STATION
N/A    - NOT AVAILABLE





USA.gov is the U.S. government's official web portal to all federal, state and local government web resources and services.